• MPC Preparation (Info)

  • MPEC 2020-F19 : 2020 FK

    The following Minor Planet Electronic Circular may be linked-to from your own Web pages, but must not otherwise be redistributed electronically.

    A form allowing access to any MPEC is at the bottom of this page.


    Read MPEC 2020-F18 Read MPEC 2020-F20


    M.P.E.C. 2020-F19                                Issued 2020 March 17, 21:23 UT
    
         The Minor Planet Electronic Circulars contain information on unusual
             minor planets and routine data on comets.  They are published
        on behalf of Division F of the International Astronomical Union by the
              Minor Planet Center, Smithsonian Astrophysical Observatory,
                              Cambridge, MA 02138, U.S.A.
    
                 Prepared using the Tamkin Foundation Computer Network
    
                                  MPC@CFA.HARVARD.EDU
                URL https://www.minorplanetcenter.net/    ISSN 1523-6714
    
                                     2020 FK                                 
    
    
    Observations:
         K20F00K* C2020 03 16.34559 11 29 18.41 -00 32 43.4          21.0 GVEF019G96
         K20F00K  C2020 03 16.35129 11 29 17.48 -00 33 52.6          22.2 GVEF019G96
         K20F00K  C2020 03 16.35698 11 29 16.57 -00 35 00.8          21.1 GVEF019G96
         K20F00K  C2020 03 16.36269 11 29 15.72 -00 36 09.4          20.9 GVEF019G96
         K20F00K  C2020 03 16.40525 11 29 09.32 -00 44 49.1          20.8 GVEF019G96
         K20F00K  C2020 03 16.40647 11 29 09.15 -00 45 03.2          21.4 GVEF019G96
         K20F00K  C2020 03 16.40769 11 29 08.99 -00 45 19.3          20.9 GVEF019G96
         K20F00K  C2020 03 16.98971 11 28 37.16 -03 01 02.0          20.7 VVEF019033
         K20F00K  C2020 03 16.99082 11 28 36.97 -03 01 19.3          20.8 VVEF019033
         K20F00K  C2020 03 16.99192 11 28 36.79 -03 01 36.4          20.6 VVEF019033
         K20F00K |C2020 03 17.19923 11 28 21.67 -03 50 50.4          20.9 VuEF019807
         K20F00K |C2020 03 17.20412 11 28 20.67 -03 52 13.1          21.0 VuEF019807
         K20F00K |C2020 03 17.20904 11 28 19.63 -03 53 36.7          20.9 VuEF019807
         K20F00K KC2020 03 17.43449211 28 10.94 -04 59 43.4          20.3 GVEF019474
         K20F00K KC2020 03 17.43634911 28 10.66 -05 00 18.5          20.1 GVEF019474
         K20F00K KC2020 03 17.43820811 28 10.31 -05 00 53.4          20.9 GVEF019474
         K20F00K KC2020 03 17.44006511 28 09.99 -05 01 28.4          20.3 GVEF019474
         K20F00K KC2020 03 17.85372511 27 29.96 -07 34 18.6          20.5 GVEF019L01
         K20F00K KC2020 03 17.85636011 27 29.40 -07 35 20.4          20.6 GVEF019L01
         K20F00K KC2020 03 17.85880111 27 28.90 -07 36 17.1          20.5 GVEF019L01
         K20F00K bC2020 03 17.86217311 27 28.15 -07 37 35.9          20.7 GVEF019L01
    
    Observer details:
    033 Karl Schwarzschild Observatory, Tautenburg.  Observers U. Laux, S. Melnikov,
        B. Stecklum.  Measurer B. Stecklum.  1.34-m f/3 Schmidt + CCD.
    474 Mount John Observatory, Lake Tekapo.  Observers A. C. Gilmore, P. M. 
       Kilmartin.  Measurer P. M. Kilmartin.  1.0-m f/7.7 reflector + CCD.
    807 Cerro Tololo Observatory, La Serena.  Observers T. Linder, R. Holmes.  
        0.61-m f/6.5 astrograph + CCD.
    G96 Mt. Lemmon Survey.  Observer G. J. Leonard.  Measurers E. J. Christensen, 
       G. A. Farneth, D. C. Fuls, A. R. Gibbs, A. D. Grauer, H. Groeller, R. A. 
       Kowalski, S. M. Larson, G. J. Leonard, T. A. Pruyne, D. Rankin, R. L. Seaman,
        F. C. Shelly, K. W. Wierzchos.  1.5-m reflector + 10K CCD.
    L01 Visnjan Observatory, Tican.  Observer K. Korlevic.  1.0-m f/2.9 reflector + 
       CCD.
    
    Orbital elements:
    2020 FK                                                  Earth MOID = 0.0087 AU
    Epoch 2020 May 31.0 TT = JDT 2459000.5                  Veres
    M  14.33474              (2000.0)            P               Q
    n   0.60976036     Peri.  249.09347     -0.44799298     +0.89400783
    a   1.3773044      Node   354.27582     -0.79096211     -0.40010088
    e   0.3827310      Incl.    4.15807     -0.41675080     -0.20166629
    P   1.62           H   28.3           G   0.15           U   7
    Residuals in seconds of arc
    200316 G96  0.3+  0.3-    200316 033  0.2+  0.1-    200317 474  0.7+  0.6-
    200316 G96  0.2-  0.8-    200316 033  0.0   0.1-    200317 474  0.7+  0.3-
    200316 G96  0.5-  0.3-    200316 033  0.0   0.1-    200317 474  1.1+  0.1-
    200316 G96  0.0   0.2+    200317 807  0.4-  0.3+    200317 L01  0.2-  0.4+
    200316 G96  0.2-  0.2+    200317 807  0.2-  0.6+    200317 L01  0.3-  0.1-
    200316 G96  0.1-  1.1+    200317 807  0.4-  0.7+    200317 L01  0.1-  0.1+
    200316 G96  0.1+  0.0     200317 474  0.2-  0.6-    200317 L01  0.6-  0.0
    
    Ephemeris:
    2020 FK                  a,e,i = 1.38, 0.38, 4                   q = 0.8502
    Date    TT    R. A. (2000) Decl.     Delta      r    Elong.  Phase     V
    2020 02 16    11 29 19.4 +13 20 42   0.2271  1.2001   157.0    18.8    26.4
    ...
    2020 03 02    11 32 40.0 +11 55 20   0.1201  1.1092   168.9     9.9    24.6
    ...
    2020 03 10    11 32 09.0 +08 59 28   0.06905 1.0618   174.5     5.2    23.1
    ...
    2020 03 16    11 29 41.7 +00 34 54   0.03278 1.0275   176.3     3.6    21.3
    2020 03 17    11 28 38.9 -02 59 07   0.02700 1.0219   173.6     6.2    21.0
    2020 03 18    11 27 01.9 -08 27 07   0.02139 1.0163   168.8    10.9    20.7
    ...
    2020 03 24    23 46 07.7 -44 36 26   0.01914 0.9839    46.4   132.8    25.7
    ...
    2020 04 01    23 37 43.8 -23 51 58   0.06604 0.9442    32.4   145.4    29.9
    ...
    2020 04 16    23 42 01.4 -17 26 53   0.1617  0.8850    39.6   133.7    30.2
    
    A. U. Tomatic                (C) Copyright 2020 MPC           M.P.E.C. 2020-F19
    


    Read MPEC 2020-F18 Read MPEC 2020-F20


    MPEC number:

    Enter an MPEC number in one of the following forms:

    • 1997-B01 (the full form)
    • J97B01 (the packed version of the full form)
    • B01 (the abbreviated form)